Home   Weather   Teresina   Past weeks

Flag for Brazil Past Weather in Teresina, Piauí, Brazil — Yesterday and Last 2 Weeks

Now
79 °F

Scattered clouds.


Feels Like: 82 °F
Forecast: 78 / 101 °F
Wind: 6 mph from North

Location: Teresina Aeroporto

Current Time: Sep 30, 2016 at 7:11:58 AM

Latest Report: Sep 30, 2016 at 6:00 AM


Visibility: N/A

Pressure: 29.86 "Hg

Humidity: 79%

Dew Point: 72 °F

Location of TeresinaLocation

Past Weather in Teresina — Graph

°F

Teresina Temperature Yesterday

Maximum temperature yesterday: 97 °F (at 2:00 PM)
Minimum temperature yesterday: 79 °F (at 4:00 AM)
Average temperature yesterday: 88 °F

High & Low Weather Summary for the Past Weeks

 TemperatureHumidityPressure
High104 °F (Sep 16, 3:00 PM)83% (Sep 15, 6:00 AM)30.01 "Hg (Sep 15, 6:00 AM)
Low77 °F (Sep 15, 6:00 AM)17% (Sep 16, 4:00 PM)29.71 "Hg (Sep 29, 4:00 PM)
Average88 °F51%29.86 "Hg
* Reported Sep 15 6:00 AM — Sep 30 6:00 AM, Teresina, Weather by CustomWeather, © 2016

Note: Actual official high and low records may vary slightly from our data, if they occured in-between our weather recording intervals... More about our weather records

Advertising

Teresina Weather History for the Previous 24 Hours

Scroll right to see more
 ConditionsComfort  
Time TempWeatherWind HumidityBarometerVisibility
6:00 AM
Fri, Sep 30
79 °FScattered clouds.6 mph79%29.86 "HgN/A
5:00 AM79 °FClear.7 mph74%29.83 "Hg10 mi
3:00 AM79 °FClear.8 mph79%29.80 "Hg10 mi
11:00 PM
Thu, Sep 29
84 °FPassing clouds.14 mph70%29.83 "HgN/A
10:00 PM88 °FPartly cloudy.10 mph55%29.83 "HgN/A
9:00 PM90 °FClear.No wind52%29.77 "Hg10 mi
8:00 PM91 °FClear.1 mph44%29.74 "Hg10 mi
7:00 PM91 °FClear.2 mph44%29.74 "Hg10 mi
6:00 PM93 °FPassing clouds.7 mph41%29.74 "HgN/A
5:00 PM97 °FPassing clouds.5 mph34%29.71 "HgN/A
4:00 PM97 °FPassing clouds.8 mph37%29.71 "HgN/A
3:00 PM97 °FScattered clouds.10 mph37%29.74 "HgN/A
2:00 PM97 °FBroken clouds.6 mph34%29.77 "HgN/A
1:00 PM95 °FPartly sunny.6 mph36%29.80 "HgN/A
12:00 PM93 °FPartly sunny.7 mph44%29.83 "HgN/A
11:00 AM93 °FPassing clouds.3 mph44%29.86 "HgN/A
10:00 AM91 °FPassing clouds.3 mph49%29.89 "HgN/A
9:00 AM86 °FPartly sunny.3 mph59%29.92 "HgN/A
8:00 AM84 °FPartly sunny.2 mph66%29.92 "HgN/A
7:00 AM81 °FSunny.5 mph74%29.89 "Hg10 mi
Weather by CustomWeather, © 2016

See weather overviewHow to use our weather pages